Regional Weather Roundup
Issued by NWS Burlington, VT

Home | Current Version | Previous Version | Text Only | Print | Product List | Glossary On
Versions: 1 2 3 4 5 6 7 8 9 10 11 12 13 14 15 16 17 18 19 20 21 22 23 24 25 26 27 28 29 30 31 32 33 34 35 36 37 38 39 40 41 42 43 44 45 46 47 48 49 50
000
ASUS41 KBTV 010830
RWRBTV
VERMONT REGIONAL WEATHER ROUNDUP
NATIONAL WEATHER SERVICE BURLINGTON VT
400 AM EDT TUE SEP 01 2015

NOTE: "FAIR" INDICATES FEW OR NO CLOUDS BELOW 12,000 FEET WITH NO
SIGNIFICANT WEATHER AND/OR OBSTRUCTIONS TO VISIBILITY.

* THESE REPORTS ARE NOT UNDER NWS QUALITY CONTROL AND/OR DO NOT
  REPORT WEATHER SUCH AS PRECIPITATION AND FOG.

VTZ001>019-010900-
_____VERMONT_____


CITY           SKY/WX    TMP DP  RH WIND       PRES   REMARKS
BURLINGTON     CLEAR     61  58  90 CALM      30.03R FOG
MONTPELIER     FOG       57  56  96 E6        30.08R VSB 1/2
MORRISVILLE    PTCLDY    58  55  90 CALM      30.06R FOG
ST. JOHNSBURY*   N/A     58  56  93 MISG      30.02R
LYNDONVILLE*   FOG       56  56  97 CALM      30.06R VSB<1/4
MIDDLEBURY*      N/A     59  59 100 CALM      30.04R FOG
RUTLAND*       CLEAR     61  55  82 E5        30.06R
SPRINGFIELD    FOG       57  57 100 CALM      30.03R VSB 1/4
HIGHGATE*      FAIR      57  57  99 CALM      30.03R FOG
NEWPORT*       FAIR      60  59  97 NW3       30.05R FOG
BENNINGTON     PTCLDY    60  58  92 CALM      30.05R FOG
GALLUP MILLS*    N/A     50 N/A N/A MISG        N/A
MT. MANSFIELD*   N/A     55 N/A N/A N12         N/A

_____LAKE CHAMPLAIN_____


CITY           SKY/WX    TMP DP  RH WIND       PRES   REMARKS
COLCHESTER RF*   N/A     70  64  83 N5          N/A
DIAMOND ISL*     N/A     68  64  88 SE3         N/A

$$

NYZ007-026>031-035-052-083-010900-
_____NORTHERN NEW YORK_____


CITY           SKY/WX    TMP DP  RH WIND       PRES   REMARKS
PLATTSBURGH    MOCLDY    64  60  87 W3        30.02R
SARANAC LAKE   FOG       52  52 100 CALM      30.07R VSB<1/4
MASSENA        FOG       56  55  97 CALM      30.04S VSB 1/4
OGDENSBURG*    FOG       57  55  94 CALM      30.04R VSB 1/2
POTSDAM*       FOG       57  57 100 CALM      30.04S VSB 1
STARK FALLS*     N/A     61 N/A N/A SE1         N/A
WATERTOWN      PTCLDY    58  58 100 CALM      30.03S FOG
FT DRUM        CLEAR     63  63 100 S3        30.04R
ALBANY         PTCLDY    65  62  90 CALM      30.03R
GLENS FALLS    CLEAR     60  58  92 CALM      30.03R FOG

$$
NHZ002-005-011-010900-
_____NEW HAMPSHIRE_____


CITY           SKY/WX    TMP DP  RH WIND       PRES   REMARKS
LEBANON        FOG       56  54  93 CALM      30.03R VSB 1
KEENE          CLOUDY    57  54  88 CALM      30.03R
MT WASHINGTON  FOG       45  45 100 NW36G46     N/A  VSB 1/8
PLYMOUTH       FAIR      60  58  92 CALM      30.01R
WHITEFIELD     FOG       54  51  90 CALM      30.04R VSB 3/4

$$

_____REGIONAL QUEBEC LOCATIONS_____


CITY           SKY/WX    TMP DP  RH WIND       PRES   REMARKS
MONTREAL       CLEAR     61  61 100 N3        30.02S
QUEBEC CITY    CLEAR     57  52  82 N5        30.01R
SHERBROOKE     FOG       52  52 100 E3        30.03R VSB 3/8

_____REGIONAL ONTARIO LOCATIONS_____


CITY           SKY/WX    TMP DP  RH WIND       PRES   REMARKS
OTTAWA         CLEAR     59  57  94 CALM      30.03R

______KEY______
VSB  - VISIBILITY IN MILES
WCI  - WIND CHILL INDEX
HX   - HEAT INDEX
$$
NNNN


USA.gov is the U.S. government's official web portal to all federal, state and local government web resources and services.